Regional Weather Roundup
Issued by NWS Upton, NY

Current Version | Previous Version | Graphics & Text | Print | Product List | Glossary Off
Versions: 1 2 3 4 5 6 7 8 9 10 11 12 13 14 15 16 17 18 19 20 21 22 23 24 25 26 27 28 29 30 31 32 33 34 35 36 37 38 39 40 41 42 43 44 45 46 47 48 49 50

000
ASUS41 KOKX 272305
RWROKX

REGIONAL WEATHER ROUNDUP
NATIONAL WEATHER SERVICE NEW YORK NY
600 PM EST THU NOV 27 2014

NOTE: "FAIR" INDICATES FEW OR NO CLOUDS BELOW 12,000 FEET WITH NO
SIGNIFICANT WEATHER AND/OR OBSTRUCTIONS TO VISIBILITY.

NYZ071-072-176-178-NJZ106-104-280000-
NEW YORK CITY METRO AREA


CITY           SKY/WX    TMP DP  RH WIND       PRES   REMARKS
CENTRAL PARK   CLOUDY    37  26  64 VRB5      30.04R WCI  33
LAGUARDIA APRT CLOUDY    37  29  72 NW15      30.02R WCI  28
KENNEDY INTL   CLOUDY    38  30  73 NW10      30.03R WCI  31
NEWARK/LIBERTY MOCLDY    36  27  69 NW8       30.04R WCI  30
BRNX BOT. GARD   N/A    N/A N/A N/A NW6       30.04R
TETERBORO      MOCLDY    36  27  69 NW8       30.02R WCI  30
$$

NYZ177-179-078>081-280000-
LONG ISLAND NEW YORK

CITY           SKY/WX    TMP DP  RH WIND       PRES   REMARKS
FARMINGDALE    CLOUDY    38  30  73 NW8       30.01R WCI  32
ISLIP          CLOUDY    38  29  70 NW8       29.99R WCI  32
SHIRLEY        CLOUDY    37  30  75 W5        30.01R WCI  33
WESTHAMPTON    CLOUDY    37  32  82 W3        30.01R
MONTAUK POINT    N/A     39  33  79 NW9       29.99R WCI  33
$$

NYZ052-065-067-280000-
HUDSON VALLEY

CITY           SKY/WX    TMP DP  RH WIND       PRES   REMARKS
WHITE PLAINS   MOCLDY    34  29  82 N6        29.99R WCI  29
NEWBURGH       CLOUDY    32  30  93 CALM      30.01R FOG
MONTGOMERY     CLOUDY    32  29  88 CALM      30.00R
POUGHKEEPSIE   FLURRIES  32  29  88 NW3       30.02R
ALBANY         LGT SNOW  29  26  89 NW6       30.03S FOG     WCI  23
$$

NJZ001-105-106-008-010-013-015-019>022-104-280000-
NEW JERSEY

CITY           SKY/WX    TMP DP  RH WIND       PRES   REMARKS
NEWARK/LIBERTY MOCLDY    36  27  69 NW8       30.04R WCI  30
TETERBORO      MOCLDY    36  27  69 NW8       30.02R WCI  30
CALDWELL       CLOUDY    33  27  78 CALM      30.03R
MORRISTOWN     NOT AVBL
SOMERVILLE     CLOUDY    35  28  75 NW6       30.03R WCI  30
SUSSEX         CLOUDY    34  26  72 NW3       30.02R
ANDOVER          N/A     33  27  78 VRB3      30.02R
TRENTON        MOCLDY    35  27  72 W5        30.04R WCI  31
MILLVILLE      CLEAR     35  28  75 NW8       30.07R WCI  29
ATLANTIC CITY  PTCLDY    34  29  82 NW6       30.06R WCI  29
WRIGHTSTOWN    CLOUDY    35  28  75 NW5       30.03R WCI  30
TOMS RIVER     MOCLDY    32  27  80 CALM      30.05R
BELMAR         CLEAR     34  25  69 W6        30.03R WCI  29
$$

PAZ047>061-062-071-280000-
EASTERN PENNSYLVANIA

CITY           SKY/WX    TMP DP  RH WIND       PRES   REMARKS
PHILADELPHIA   PTCLDY    38  27  64 NW7       30.08R WCI  33
ALLENTOWN      PTCLDY    34  25  69 NW5       30.05R WCI  30
SCRANTON       CLEAR     30  21  69 W10       30.03R WCI  21
$$

CTZ002-004>006-009-010-012-RIZ004-006-007-MAZ004-011-015-280000-
SOUTHERN NEW ENGLAND
 IN CT

CITY           SKY/WX    TMP DP  RH WIND       PRES   REMARKS
BRADLEY INTL   FLURRIES  34  28  79 CALM      29.99R
HARTFORD       FLURRIES  34  29  82 VRB6      30.00R WCI  29
DANBURY        CLOUDY    33  26  75 NW3       30.00S
WTRBRY/OXFORD  CLOUDY    30  23  74 N5        29.99R WCI  25
BRIDGEPORT     CLOUDY    35  30  82 NW8       30.01R WCI  29
MERIDEN        LGT SNOW  33  30  88 CALM      30.00R FOG
NEW HAVEN      CLOUDY    37  31  78 N5        30.00R WCI  33
CHESTER        LGT SNOW  32  32 100 NW3       29.99R
GROTON         LGT SNOW  34  32  92 N9        29.99R FOG     WCI  27
WILLIMANTIC    LGT SNOW  34  30  85 N3        29.99R FOG

 IN RI

CITY           SKY/WX    TMP DP  RH WIND       PRES   REMARKS
PROVIDENCE     LGT SNOW  35  30  82 N7        29.99R WCI  29
BLOCK ISLAND   CLOUDY    39  32  75 N9        29.97R WCI  33
WESTERLY       LGT RAIN  35  33  92 NW7       29.99R WCI  29

 IN MA

CITY           SKY/WX    TMP DP  RH WIND       PRES   REMARKS
BOSTON         CLOUDY    35  28  75 N8        29.99R WCI  29
WORCESTER      CLOUDY    28  24  85 NW7       29.94S WCI  21
WESTFIELD      CLOUDY    33  28  81 CALM      29.99R
PROVINCETOWN   CLOUDY    39  30  70 N6        29.97S WCI  35
NANTUCKET      CLOUDY    39  33  79 N3        29.96S
$$

ANZ330-335-338-340-345-350-353-355-280000-
COASTAL MARINE OBSERVATIONS


STATION/POSITION TIME  SKY/WX   TEMP    WIND        PRES    VSBY  WAVE
                                AIR SEA DIR/SP/G                  HT/PER
                 (UTC)          (F)     (DEG/KT/KT) (MB)    (MI)  (FT/S)
NY HARB ENTRANCE 2300            40 54  300/ 19/ 21 1016.5          4/ 9
4S FIRE IS       2200               52                N/A           4/10
20S FIRE ISLAND  2300            40 54  330/ 14/ 17 1015.5          5/10
23SW MTP         2300                                 N/A           5/10
HUDSON CANYON    2300            43 58  290/ 17/ 21 1015.0          6/10
EXECUTION ROCKS  2300            38 47  310/ 10/ 16   N/A
WESTERN LI SOUND 2300            37     330/  8/ 12   N/A           0
CENTRAL LI SOUND 2200            36 50  330/ 12/ 16   N/A           1/ 2
EASTERN LI SOUND 2200            38 52  340/ 12/ 16   N/A
ROBBINS REEF     2300            36     310/ 12/ 14 1015.7
$$


>>>>>>>>>>>>>>>>>>>>>>>>>>>> KEY <<<<<<<<<<<<<<<<<<<<<<<<<<<
>                                                          <
>     SKY/WX - SKY CONDITION/PRESENT WEATHER               <
>     TMP    - TEMPERATURE IN FAHRENHEIT                   <
>     DP     - DEWPOINT IN FAHRENHEIT                      <
>     RH     - RELATIVE HUMIDITY IN PERCENT                <
>     WIND   - DIRECTION AND SPEED IN MPH                  <
>     PRES   - MEAN SEA LEVEL PRESSURE IN INCHES OF HG     <
>     WCI    - WIND CHILL INDEX                            <
>     VSB    - VISIBILITY IN MILES                         <
>     HX     - HEAT INDEX                                  <
>     TC     - TEMPERATURE IN CELSIUS                      <
>     VRB    - VARIABLE WIND DIRECTION                     <
>                                                          <
>>>>>>>>>>>>>>>>>>>>>>>>>>>> KEY <<<<<<<<<<<<<<<<<<<<<<<<<<<




USA.gov is the U.S. government's official web portal to all federal, state and local government web resources and services.